Regional Weather Roundup
Issued by NWS

Home | Current Version | Previous Version | Graphics & Text | Print | Product List | Glossary On
Versions: 1 2 3 4 5 6 7 8 9 10 11 12 13 14 15 16 17 18 19 20 21 22 23 24 25 26 27 28 29 30 31 32 33 34 35 36 37 38 39 40 41 42 43 44 45 46 47 48 49 50
000
ASUS43 KTOP 221108
RWRKS

WEATHER ROUNDUP FOR KANSAS
NATIONAL WEATHER SERVICE GOODLAND KS
500 AM CST MON DEC 22 2014

NOTE:  "FAIR" INDICATES FEW OR NO CLOUDS BELOW 12,000 FEET WITH NO
SIGNIFICANT WEATHER AND/OR OBSTRUCTIONS TO VISIBILITY.

KSZ001>006-013>018-027>032-041>047-221200-
NORTHWEST KANSAS

CITY           SKY/WX    TMP DP  RH WIND       PRES   REMARKS
GOODLAND       PTCLDY    36  29  75 NW18      29.63R WCI  26
HAYS           CLOUDY    41  30  65 NW15      29.54R
HILL CITY      CLOUDY    43  33  68 NW16G24   29.56R
RUSSELL        CLOUDY    43  42  97 SW8       29.51S FOG
$$

KSZ061>065-074>080-084>089-221200-
SOUTHWEST KANSAS

CITY           SKY/WX    TMP DP  RH WIND       PRES   REMARKS
DODGE CITY     CLOUDY    42  35  76 NW17      29.57R
ELKHART          N/A    N/A N/A N/A MISG        N/A
GARDEN CITY    CLOUDY    40  35  83 NW17      29.59R WCI  31
GREAT BEND     CLOUDY    43  39  87 SW8       29.53F
LIBERAL        PTCLDY    43  36  75 NW17      29.62R
PRATT          FOG       43  43 100 CALM      29.55S VSB 1/4
$$

KSZ066>073-081>083-090>101-221200-
SOUTHEAST KANSAS

CITY           SKY/WX    TMP DP  RH WIND       PRES   REMARKS
CHANUTE        CLOUDY    44  43  96 SE8       29.61F FOG
COFFEYVILLE    CLOUDY    45  44  97 SE9       29.61F FOG
HUTCHINSON     CLOUDY    45  42  89 S8        29.55F FOG
MEDICINE LODGE   N/A     44  44 100 S3        29.54F
NEWTON         CLOUDY    43  37  81 S8        29.57F
PARSONS        CLOUDY    45  44  97 SE6       29.62F
WICHITA INTL   DRIZZLE   45  43  93 SE9       29.55F FOG
WICHITA JABRA  CLOUDY    44  43  96 S9        29.56F FOG
WICHITA MCCONL CLOUDY    44  43  98 SE7       29.56F
WINFIELD       CLOUDY    45  45 100 SE8       29.57F FOG
$$

KSZ007>012-019>026-033>040-048>060-102>105-221200-
NORTHEAST KANSAS

CITY           SKY/WX    TMP DP  RH WIND       PRES   REMARKS
CONCORDIA      CLOUDY    43  43 100 S13       29.51F FOG
EMPORIA        CLOUDY    42  42 100 SE12      29.58S FOG
LAWRENCE       CLOUDY    42  40  92 SE9       29.61F FOG
MANHATTAN      CLOUDY    43  43 100 S7        29.56F
MARYSVILLE     LGT RAIN  43  41  93 S10G16    29.55F
OLATHE IND     CLOUDY    41  40  96 SE13      29.62F FOG
OLATHE EXE     CLOUDY    41  41 100 S10       29.62F FOG
SALINA         CLOUDY    45  43  93 S7        29.55F FOG
TOPEKA BILLARD CLOUDY    45  43  93 SE10      29.60F FOG
TOPEKA FORBES  CLOUDY    44  42  93 S10       29.59F FOG
$$


USA.gov is the U.S. government's official web portal to all federal, state and local government web resources and services.